When you browse on this site, cookies collect data to enhance your experience and personalize the content and advertising you see.
Visit our Privacy Policy to learn more. By continuing to use the site, you agree to this use of cookies and data.
  • In Romania
  • List of Countries
  • For 7 days
  • Water Temperature
  • Weather Map
  • Weather Widgets
  • user-avatar
    Login

    Hourly Weather Falaba

    Today, 6 April, Monday

    Time Temperature Precipitation Wind Pressure Humidity
    00:00 +24°C° 0.1 mm 0 mps 740 mmHg 95%
    01:00 +24°C° 0.1 mm 0 mps 740 mmHg 97%
    02:00 +24°C° 0.1 mm 0 mps 739 mmHg 98%
    03:00 +24°C° 0 mm 0 mps 740 mmHg 98%
    04:00 +24°C° 0 mm 0 mps 740 mmHg 98%
    05:00 +24°C° 0 mm 0 mps 740 mmHg 98%
    06:00 +25°C° 0 mm 0 mps 741 mmHg 94%
    07:00 +26°C° 0 mm 0 mps 741 mmHg 89%
    08:00 +29°C° 0 mm 1 mps 742 mmHg 85%
    09:00 +30°C° 0.1 mm 1 mps 742 mmHg 79%
    10:00 +31°C° 0.1 mm 1 mps 742 mmHg 73%
    11:00 +32°C° 0.1 mm 1 mps 741 mmHg 67%
    12:00 +33°C° 0 mm 1 mps 741 mmHg 63%
    13:00 +34°C° 0 mm 1 mps 740 mmHg 59%
    14:00 +34°C° 0 mm 1 mps 739 mmHg 56%
    15:00 +34°C° 0 mm 1 mps 739 mmHg 56%
    16:00 +34°C° 0 mm 1 mps 739 mmHg 56%
    17:00 +34°C° 0 mm 1 mps 739 mmHg 56%
    18:00 +32°C° 2.4 mm 1 mps 740 mmHg 68%
    19:00 +29°C° 2.4 mm 1 mps 741 mmHg 80%
    20:00 +27°C° 2.4 mm 2 mps 741 mmHg 92%
    21:00 +26°C° 1.1 mm 2 mps 741 mmHg 91%
    22:00 +25°C° 1.1 mm 1 mps 741 mmHg 91%
    23:00 +25°C° 1.1 mm 1 mps 741 mmHg 90%

    Tomorrow, 7 April, Tuesday

    Time Temperature Precipitation Wind Pressure Humidity
    00:00 +25°C° 0 mm 1 mps 740 mmHg 91%
    01:00 +25°C° 0 mm 1 mps 740 mmHg 93%
    02:00 +23°C° 0 mm 0 mps 740 mmHg 94%
    03:00 +23°C° 0 mm 0 mps 740 mmHg 95%
    04:00 +23°C° 0 mm 0 mps 740 mmHg 95%
    05:00 +23°C° 0 mm 0 mps 740 mmHg 96%
    06:00 +24°C° 0 mm 0 mps 741 mmHg 91%
    07:00 +26°C° 0 mm 0 mps 741 mmHg 85%
    08:00 +29°C° 0 mm 1 mps 742 mmHg 80%
    09:00 +31°C° 0 mm 1 mps 742 mmHg 71%
    10:00 +34°C° 0 mm 1 mps 741 mmHg 61%
    11:00 +37°C° 0 mm 2 mps 741 mmHg 52%
    12:00 +37°C° 0 mm 2 mps 740 mmHg 50%
    13:00 +37°C° 0 mm 2 mps 740 mmHg 48%
    14:00 +38°C° 0 mm 2 mps 739 mmHg 47%
    15:00 +37°C° 0.1 mm 2 mps 739 mmHg 51%
    16:00 +35°C° 0.1 mm 1 mps 739 mmHg 56%
    17:00 +34°C° 0.1 mm 1 mps 739 mmHg 60%
    18:00 +31°C° 0.4 mm 1 mps 739 mmHg 71%
    19:00 +29°C° 0.4 mm 1 mps 740 mmHg 82%
    20:00 +27°C° 0.4 mm 1 mps 741 mmHg 92%
    21:00 +27°C° 0 mm 1 mps 741 mmHg 94%
    22:00 +27°C° 0 mm 1 mps 741 mmHg 95%
    23:00 +24°C° 0 mm 0 mps 741 mmHg 97%

    Day after tomorrow, 8 April, Wednesday

    Time Temperature Precipitation Wind Pressure Humidity
    00:00 +24°C° 0 mm 0 mps 740 mmHg 97%
    01:00 +24°C° 0 mm 0 mps 740 mmHg 98%
    02:00 +24°C° 0 mm 0 mps 739 mmHg 99%
    03:00 +24°C° 0 mm 0 mps 739 mmHg 99%
    04:00 +23°C° 0 mm 0 mps 739 mmHg 99%
    05:00 +23°C° 0 mm 0 mps 739 mmHg 99%
    06:00 +25°C° 0.1 mm 0 mps 740 mmHg 93%
    07:00 +28°C° 0.1 mm 1 mps 741 mmHg 87%
    08:00 +29°C° 0.1 mm 1 mps 741 mmHg 82%
    09:00 +30°C° 0.1 mm 1 mps 741 mmHg 75%
    10:00 +32°C° 0.1 mm 1 mps 741 mmHg 68%
    11:00 +33°C° 0.1 mm 1 mps 740 mmHg 62%
    12:00 +34°C° 0 mm 1 mps 740 mmHg 59%
    13:00 +34°C° 0 mm 1 mps 739 mmHg 57%
    14:00 +35°C° 0 mm 1 mps 739 mmHg 54%
    15:00 +35°C° 0 mm 1 mps 738 mmHg 56%
    16:00 +34°C° 0 mm 1 mps 738 mmHg 57%
    17:00 +34°C° 0 mm 1 mps 738 mmHg 59%
    18:00 +32°C° 0 mm 1 mps 738 mmHg 66%
    19:00 +30°C° 0 mm 1 mps 739 mmHg 74%
    20:00 +29°C° 0 mm 1 mps 740 mmHg 82%
    21:00 +28°C° 0.7 mm 1 mps 740 mmHg 86%
    22:00 +25°C° 0.7 mm 0 mps 740 mmHg 90%
    23:00 +24°C° 0.7 mm 0 mps 740 mmHg 95%

    9 April, Thursday

    Time Temperature Precipitation Wind Pressure Humidity
    00:00 +24°C° 0 mm 0 mps 740 mmHg 96%
    01:00 +24°C° 0 mm 0 mps 739 mmHg 97%
    02:00 +24°C° 0 mm 0 mps 739 mmHg 98%
    03:00 +24°C° 0 mm 0 mps 739 mmHg 98%
    04:00 +24°C° 0 mm 0 mps 739 mmHg 99%
    05:00 +23°C° 0 mm 0 mps 739 mmHg 99%
    06:00 +25°C° 0 mm 0 mps 740 mmHg 91%
    07:00 +27°C° 0 mm 0 mps 740 mmHg 83%
    08:00 +30°C° 0 mm 1 mps 740 mmHg 75%
    09:00 +32°C° 0 mm 1 mps 740 mmHg 69%
    10:00 +33°C° 0 mm 1 mps 740 mmHg 62%
    11:00 +35°C° 0 mm 1 mps 740 mmHg 55%
    12:00 +36°C° 0 mm 1 mps 739 mmHg 51%
    13:00 +37°C° 0 mm 1 mps 738 mmHg 46%
    14:00 +39°C° 0 mm 1 mps 737 mmHg 42%
    15:00 +37°C° 0.2 mm 1 mps 737 mmHg 48%
    16:00 +35°C° 0.2 mm 1 mps 737 mmHg 54%
    17:00 +34°C° 0.2 mm 1 mps 737 mmHg 60%
    18:00 +31°C° 1.2 mm 1 mps 738 mmHg 71%
    19:00 +29°C° 1.2 mm 1 mps 738 mmHg 82%
    20:00 +25°C° 1.2 mm 0 mps 739 mmHg 93%
    21:00 +25°C° 0 mm 0 mps 739 mmHg 94%
    22:00 +24°C° 0 mm 0 mps 739 mmHg 95%
    23:00 +26°C° 0 mm 1 mps 739 mmHg 97%

    10 April, Friday

    Time Temperature Precipitation Wind Pressure Humidity
    00:00 +24°C° 0 mm 0 mps 738 mmHg 97%
    01:00 +24°C° 0 mm 0 mps 738 mmHg 98%
    02:00 +24°C° 0 mm 0 mps 738 mmHg 99%
    03:00 +24°C° 0 mm 0 mps 738 mmHg 98%
    04:00 +24°C° 0 mm 0 mps 738 mmHg 98%
    05:00 +24°C° 0 mm 0 mps 739 mmHg 98%
    06:00 +25°C° 0.1 mm 0 mps 739 mmHg 95%
    07:00 +25°C° 0.1 mm 0 mps 740 mmHg 92%
    08:00 +26°C° 0.1 mm 0 mps 740 mmHg 89%
    09:00 +27°C° 0.1 mm 0 mps 740 mmHg 82%
    10:00 +29°C° 0.1 mm 0 mps 740 mmHg 75%
    11:00 +30°C° 0.1 mm 0 mps 740 mmHg 68%
    12:00 +32°C° 0 mm 0 mps 739 mmHg 60%
    13:00 +36°C° 0 mm 1 mps 738 mmHg 53%
    14:00 +37°C° 0 mm 1 mps 738 mmHg 45%
    15:00 +36°C° 0 mm 1 mps 737 mmHg 48%
    16:00 +35°C° 0 mm 1 mps 737 mmHg 51%
    17:00 +34°C° 0 mm 1 mps 737 mmHg 55%
    18:00 +32°C° 0.7 mm 1 mps 737 mmHg 66%
    19:00 +30°C° 0.7 mm 1 mps 738 mmHg 77%
    20:00 +27°C° 0.7 mm 1 mps 738 mmHg 89%
    21:00 +27°C° 1.3 mm 1 mps 739 mmHg 91%
    22:00 +27°C° 1.3 mm 1 mps 739 mmHg 94%
    23:00 +24°C° 1.3 mm 0 mps 739 mmHg 97%

    11 April, Saturday

    Time Temperature Precipitation Wind Pressure Humidity
    00:00 +24°C° 0 mm 0 mps 739 mmHg 98%
    01:00 +24°C° 0 mm 0 mps 738 mmHg 98%
    02:00 +24°C° 0 mm 0 mps 738 mmHg 99%
    03:00 +24°C° 0 mm 0 mps 738 mmHg 99%
    04:00 +24°C° 0 mm 0 mps 738 mmHg 98%
    05:00 +24°C° 0 mm 0 mps 739 mmHg 98%
    06:00 +25°C° 0 mm 0 mps 739 mmHg 93%
    07:00 +26°C° 0 mm 0 mps 740 mmHg 88%
    08:00 +28°C° 0 mm 0 mps 740 mmHg 83%
    09:00 +29°C° 0 mm 0 mps 740 mmHg 75%
    10:00 +32°C° 0 mm 1 mps 740 mmHg 67%
    11:00 +34°C° 0 mm 1 mps 740 mmHg 59%
    12:00 +34°C° 0 mm 1 mps 739 mmHg 57%
    13:00 +35°C° 0 mm 1 mps 738 mmHg 55%
    14:00 +35°C° 0 mm 1 mps 738 mmHg 53%
    15:00 +34°C° 0 mm 1 mps 738 mmHg 56%
    16:00 +34°C° 0 mm 1 mps 737 mmHg 58%
    17:00 +33°C° 0 mm 1 mps 737 mmHg 61%
    18:00 +31°C° 1.7 mm 1 mps 738 mmHg 71%
    19:00 +29°C° 1.7 mm 1 mps 739 mmHg 82%
    20:00 +27°C° 1.7 mm 1 mps 740 mmHg 93%
    21:00 +26°C° 0.9 mm 1 mps 740 mmHg 94%
    22:00 +26°C° 0.9 mm 1 mps 740 mmHg 95%
    23:00 +26°C° 0.9 mm 1 mps 740 mmHg 96%
    Show more